EN

Hourly Weather Iha

Today, 30 September, Wednesday

Time Temperature Precipitation Wind Pressure Humidity
00:00 +6°C° 0 mm 1 mps 610 mmHg 89%
01:00 +6°C° 0 mm 1 mps 610 mmHg 89%
02:00 +5°C° 0 mm 1 mps 609 mmHg 89%
03:00 +5°C° 0 mm 1 mps 609 mmHg 89%
04:00 +5°C° 0 mm 1 mps 609 mmHg 89%
05:00 +5°C° 0 mm 1 mps 609 mmHg 89%
06:00 +5°C° 0 mm 1 mps 608 mmHg 90%
07:00 +7°C° 0 mm 1 mps 609 mmHg 83%
08:00 +7°C° 0 mm 2 mps 609 mmHg 76%
09:00 +9°C° 0 mm 2 mps 610 mmHg 70%
10:00 +10°C° 0 mm 2 mps 610 mmHg 66%
11:00 +12°C° 0 mm 2 mps 610 mmHg 62%
12:00 +13°C° 0 mm 2 mps 611 mmHg 58%
13:00 +13°C° 0 mm 2 mps 610 mmHg 59%
14:00 +13°C° 0 mm 2 mps 610 mmHg 60%
15:00 +13°C° 0 mm 2 mps 610 mmHg 60%
16:00 +10°C° 0 mm 2 mps 609 mmHg 69%
17:00 +9°C° 0 mm 1 mps 609 mmHg 78%
18:00 +7°C° 0 mm 1 mps 608 mmHg 86%
19:00 +7°C° 0 mm 1 mps 608 mmHg 87%
20:00 +7°C° 0 mm 1 mps 608 mmHg 88%
21:00 +6°C° 0 mm 1 mps 608 mmHg 88%
22:00 +6°C° 0 mm 1 mps 608 mmHg 88%
23:00 +7°C° 0 mm 1 mps 609 mmHg 89%

Tomorrow, 1 October, Thursday

Time Temperature Precipitation Wind Pressure Humidity
00:00 +7°C° 0 mm 1 mps 609 mmHg 89%
01:00 +7°C° 0 mm 1 mps 609 mmHg 89%
02:00 +7°C° 0 mm 1 mps 609 mmHg 89%
03:00 +7°C° 0 mm 1 mps 609 mmHg 89%
04:00 +7°C° 0 mm 1 mps 609 mmHg 90%
05:00 +7°C° 0 mm 1 mps 609 mmHg 90%
06:00 +7°C° 0 mm 1 mps 609 mmHg 91%
07:00 +7°C° 0 mm 2 mps 609 mmHg 88%
08:00 +8°C° 0 mm 2 mps 610 mmHg 85%
09:00 +8°C° 0 mm 2 mps 610 mmHg 82%
10:00 +9°C° 0 mm 2 mps 610 mmHg 78%
11:00 +10°C° 0 mm 3 mps 611 mmHg 74%
12:00 +12°C° 0 mm 3 mps 611 mmHg 70%
13:00 +11°C° 0 mm 3 mps 610 mmHg 72%
14:00 +11°C° 0 mm 3 mps 610 mmHg 74%
15:00 +12°C° 0 mm 2 mps 610 mmHg 76%
16:00 +10°C° 0 mm 2 mps 609 mmHg 81%
17:00 +8°C° 0 mm 2 mps 609 mmHg 86%
18:00 +8°C° 0 mm 1 mps 609 mmHg 91%
19:00 +7°C° 0 mm 2 mps 609 mmHg 91%
20:00 +7°C° 0 mm 2 mps 609 mmHg 92%
21:00 +7°C° 0 mm 2 mps 609 mmHg 92%
22:00 +7°C° 0 mm 2 mps 609 mmHg 92%
23:00 +7°C° 0 mm 2 mps 609 mmHg 91%

Day after tomorrow, 2 October, Friday

Time Temperature Precipitation Wind Pressure Humidity
00:00 +7°C° 0 mm 2 mps 609 mmHg 90%
01:00 +7°C° 0 mm 2 mps 609 mmHg 90%
02:00 +7°C° 0 mm 2 mps 609 mmHg 91%
03:00 +7°C° 0 mm 2 mps 609 mmHg 91%
04:00 +8°C° 0 mm 1 mps 609 mmHg 91%
05:00 +8°C° 0 mm 1 mps 609 mmHg 91%
06:00 +7°C° 0 mm 1 mps 609 mmHg 91%
07:00 +9°C° 0 mm 1 mps 610 mmHg 84%
08:00 +10°C° 0 mm 2 mps 611 mmHg 77%
09:00 +13°C° 0 mm 2 mps 611 mmHg 71%
10:00 +14°C° 0 mm 2 mps 612 mmHg 65%
11:00 +14°C° 0 mm 3 mps 612 mmHg 60%
12:00 +16°C° 0 mm 3 mps 612 mmHg 55%
13:00 +16°C° 0 mm 3 mps 612 mmHg 57%
14:00 +16°C° 0 mm 3 mps 612 mmHg 58%
15:00 +16°C° 0 mm 2 mps 612 mmHg 59%
16:00 +14°C° 0.2 mm 2 mps 611 mmHg 68%
17:00 +12°C° 0.2 mm 2 mps 611 mmHg 77%
18:00 +10°C° 0.2 mm 2 mps 610 mmHg 86%
19:00 +9°C° 0 mm 2 mps 611 mmHg 88%
20:00 +9°C° 0 mm 2 mps 611 mmHg 90%
21:00 +8°C° 0 mm 2 mps 611 mmHg 91%
22:00 +8°C° 0.1 mm 2 mps 611 mmHg 92%
23:00 +9°C° 0.1 mm 1 mps 611 mmHg 93%

3 October, Saturday

Time Temperature Precipitation Wind Pressure Humidity
00:00 +9°C° 0.1 mm 1 mps 611 mmHg 94%
01:00 +9°C° 0 mm 1 mps 611 mmHg 94%
02:00 +9°C° 0 mm 1 mps 611 mmHg 93%
03:00 +9°C° 0 mm 1 mps 611 mmHg 93%
04:00 +9°C° 0 mm 1 mps 611 mmHg 92%
05:00 +8°C° 0 mm 1 mps 611 mmHg 92%
06:00 +8°C° 0 mm 1 mps 611 mmHg 91%
07:00 +10°C° 0 mm 1 mps 612 mmHg 84%
08:00 +11°C° 0 mm 1 mps 613 mmHg 76%
09:00 +13°C° 0 mm 1 mps 614 mmHg 69%
10:00 +14°C° 0.2 mm 1 mps 614 mmHg 67%
11:00 +15°C° 0.2 mm 1 mps 614 mmHg 65%
12:00 +15°C° 0.2 mm 2 mps 614 mmHg 63%
13:00 +15°C° 0.7 mm 2 mps 614 mmHg 67%
14:00 +14°C° 0.7 mm 1 mps 614 mmHg 70%
15:00 +14°C° 0.7 mm 1 mps 613 mmHg 74%
16:00 +13°C° 0.4 mm 1 mps 613 mmHg 79%
17:00 +11°C° 0.4 mm 1 mps 613 mmHg 83%
18:00 +10°C° 0.4 mm 1 mps 613 mmHg 88%
19:00 +10°C° 0.1 mm 1 mps 613 mmHg 89%
20:00 +10°C° 0.1 mm 1 mps 613 mmHg 91%
21:00 +10°C° 0.1 mm 1 mps 613 mmHg 92%
22:00 +10°C° 0.1 mm 1 mps 613 mmHg 92%
23:00 +9°C° 0.1 mm 1 mps 613 mmHg 93%

4 October, Sunday

Time Temperature Precipitation Wind Pressure Humidity
00:00 +9°C° 0.1 mm 1 mps 613 mmHg 93%
01:00 +9°C° 0.1 mm 1 mps 613 mmHg 94%
02:00 +9°C° 0.1 mm 1 mps 613 mmHg 94%
03:00 +8°C° 0.1 mm 1 mps 613 mmHg 95%
04:00 +8°C° 0 mm 1 mps 613 mmHg 94%
05:00 +8°C° 0 mm 1 mps 613 mmHg 94%
06:00 +7°C° 0 mm 0 mps 613 mmHg 94%
07:00 +9°C° 0 mm 1 mps 613 mmHg 89%
08:00 +10°C° 0 mm 1 mps 614 mmHg 84%
09:00 +11°C° 0 mm 1 mps 614 mmHg 79%
10:00 +12°C° 0 mm 1 mps 615 mmHg 74%
11:00 +13°C° 0 mm 1 mps 615 mmHg 69%
12:00 +15°C° 0 mm 1 mps 615 mmHg 63%
13:00 +15°C° 0.1 mm 1 mps 615 mmHg 63%
14:00 +14°C° 0.1 mm 1 mps 615 mmHg 63%
15:00 +14°C° 0.1 mm 2 mps 615 mmHg 62%
16:00 +13°C° 0.2 mm 1 mps 614 mmHg 71%
17:00 +11°C° 0.2 mm 1 mps 614 mmHg 79%
18:00 +9°C° 0.2 mm 1 mps 613 mmHg 87%
19:00 +9°C° 0 mm 1 mps 613 mmHg 88%
20:00 +9°C° 0 mm 1 mps 613 mmHg 88%
21:00 +8°C° 0 mm 1 mps 613 mmHg 88%
22:00 +8°C° 0 mm 1 mps 613 mmHg 89%
23:00 +8°C° 0 mm 1 mps 614 mmHg 89%

5 October, Monday

Time Temperature Precipitation Wind Pressure Humidity
00:00 +8°C° 0 mm 1 mps 614 mmHg 89%
01:00 +8°C° 0 mm 1 mps 613 mmHg 89%
02:00 +8°C° 0 mm 1 mps 613 mmHg 89%
03:00 +8°C° 0 mm 1 mps 613 mmHg 90%
04:00 +7°C° 0 mm 1 mps 613 mmHg 89%
05:00 +7°C° 0 mm 1 mps 613 mmHg 88%
06:00 +7°C° 0 mm 1 mps 613 mmHg 87%
07:00 +9°C° 0 mm 1 mps 614 mmHg 80%
08:00 +11°C° 0 mm 1 mps 615 mmHg 72%
09:00 +13°C° 0 mm 1 mps 615 mmHg 65%
10:00 +14°C° 0 mm 1 mps 616 mmHg 62%
11:00 +15°C° 0 mm 1 mps 616 mmHg 59%
12:00 +15°C° 0 mm 2 mps 616 mmHg 57%
13:00 +15°C° 0.1 mm 2 mps 616 mmHg 61%
14:00 +14°C° 0.1 mm 2 mps 615 mmHg 66%
15:00 +14°C° 0.1 mm 2 mps 615 mmHg 70%
16:00 +13°C° 0.2 mm 1 mps 615 mmHg 75%
17:00 +12°C° 0.2 mm 1 mps 614 mmHg 79%
18:00 +11°C° 0.2 mm 1 mps 614 mmHg 84%
19:00 +10°C° 0 mm 1 mps 614 mmHg 85%
20:00 +10°C° 0 mm 1 mps 614 mmHg 85%
21:00 +8°C° 0 mm 0 mps 614 mmHg 86%
22:00 +8°C° 0 mm 0 mps 614 mmHg 86%
23:00 +9°C° 0 mm 1 mps 614 mmHg 87%
Show more

We Need Your Consent

Meteoprog and our Service Providers may store and access personal data such as cookies, device identifiers or other similar technologies on your device and process such data to personalise content and ads, as well as provide social media features and to analyse the traffic.

  • Store and/or access information on your device

    Cookies, device identifiers or other information can be stored or accessed on your device for the purposes indicated above.

  • Personalised ads and content, ad and content measurement, audience insights, and products development

    Ads and content can be personalised based on a profile. More data can be added to better personalise ads and content. Ad and content performance can be measured. Insights about the audience who saw the ads and content can be derived. Such data can be used to develop or improve user’s experience, systems and software.

By clicking ‘I Agree’ you will allow the use of indicated cookies, device identifiers, web beacons or other similar technologies. Your settings can be changed in the browser on your device.

For certain purposes, legitimate interests may be relied on, rather than consent. You can read more about this in our Privacy and Cookie Policy.